| time (UTC) | temp C | wind direction | speed KPH | gust KPH | rain 1hr cm | rain 24hr cm | rain mn cm | humidity % | barometer mb |
| 20260906113307 | 17 | 95 | 0.0 | 0.0 | 0.00 | 0.00 | 0.00 | 94 | 1020.4 |
| 20260906113035 | 17 | 95 | 0.0 | 0.0 | 0.00 | 0.00 | 0.00 | 94 | 1020.3 |
| 20260906112307 | 17 | 95 | 0.0 | 0.0 | 0.00 | 0.00 | 0.00 | 94 | 1020.2 |
| 20260906111800 | 17 | 95 | 0.0 | 0.0 | 0.00 | 0.00 | 0.00 | 94 | 1020.0 |
| 20260906111255 | 17 | 95 | 0.0 | 0.0 | 0.00 | 0.00 | 0.00 | 94 | 1019.9 |
| 20260906110747 | 17 | 95 | 0.0 | 0.0 | 0.00 | 0.00 | 0.00 | 94 | 1019.8 |
| 20260906110242 | 17 | 95 | 0.0 | 0.0 | 0.00 | 0.00 | 0.00 | 94 | 1019.7 |
| 20260906110002 | 17 | 95 | 0.0 | 0.0 | 0.00 | 0.00 | 0.00 | 94 | 1019.7 |
| 20260906105230 | 17 | 95 | 0.0 | 0.0 | 0.00 | 0.00 | 0.00 | 94 | 1019.8 |
| 20260906104725 | 17 | 95 | 0.0 | 0.0 | 0.00 | 0.00 | 0.00 | 93 | 1019.9 |
| 20260906104219 | 18 | 95 | 0.0 | 0.0 | 0.00 | 0.00 | 0.00 | 94 | 1019.8 |
| 20260906103713 | 18 | 95 | 0.0 | 0.0 | 0.00 | 0.00 | 0.00 | 94 | 1019.7 |
| 20260906103206 | 18 | 95 | 0.0 | 0.0 | 0.00 | 0.00 | 0.00 | 94 | 1019.6 |
| 20260906102700 | 18 | 95 | 0.0 | 0.0 | 0.00 | 0.00 | 0.00 | 94 | 1019.7 |
| 20260906102154 | 18 | 95 | 0.0 | 0.0 | 0.00 | 0.00 | 0.00 | 94 | 1019.7 |
| 20260906102127 | 18 | 95 | 0.0 | 0.0 | 0.00 | 0.00 | 0.00 | 94 | 1019.6 |
| 20260906101142 | 17 | 95 | 0.0 | 0.0 | 0.00 | 0.00 | 0.00 | 94 | 1019.8 |
| 20260906100636 | 17 | 95 | 0.0 | 0.0 | 0.00 | 0.00 | 0.00 | 93 | 1019.6 |
| 20260906100130 | 17 | 95 | 0.0 | 0.0 | 0.00 | 0.00 | 0.00 | 93 | 1019.6 |
| 20260906095625 | 17 | 95 | 0.0 | 0.0 | 0.00 | 0.00 | 0.00 | 93 | 1019.4 |
| 20260906095117 | 18 | 95 | 0.0 | 0.0 | 0.00 | 0.00 | 0.00 | 93 | 1019.3 |
| 20260906094611 | 18 | 95 | 0.0 | 0.0 | 0.00 | 0.00 | 0.00 | 93 | 1019.3 |
| 20260906094106 | 18 | 95 | 0.0 | 0.0 | 0.00 | 0.00 | 0.00 | 93 | 1019.3 |
| 20260906093600 | 18 | 95 | 0.0 | 0.0 | 0.00 | 0.00 | 0.00 | 94 | 1019.4 |
| 20260906093055 | 18 | 95 | 0.0 | 0.0 | 0.00 | 0.00 | 0.00 | 93 | 1019.4 |
| 20260906092550 | 18 | 95 | 0.0 | 0.0 | 0.00 | 0.00 | 0.00 | 93 | 1019.3 |
| 20260906092042 | 18 | 95 | 0.0 | 0.0 | 0.00 | 0.00 | 0.00 | 93 | 1019.3 |
| 20260906091800 | 18 | 95 | 0.0 | 0.0 | 0.00 | 0.00 | 0.00 | 93 | 1019.3 |
| 20260906091030 | 18 | 95 | 0.0 | 0.0 | 0.00 | 0.00 | 0.00 | 93 | 1019.3 |
| 20260906090608 | 18 | 95 | 0.0 | 0.0 | 0.00 | 0.00 | 0.00 | 93 | 1019.3 |
| 20260906085512 | 18 | 95 | 0.0 | 0.0 | 0.00 | 0.00 | 0.00 | 93 | 1019.2 |
| 20260906085006 | 18 | 95 | 0.0 | 0.0 | 0.00 | 0.00 | 0.00 | 93 | 1019.2 |
| 20260906084459 | 18 | 95 | 0.0 | 0.0 | 0.00 | 0.00 | 0.00 | 93 | 1019.4 |
| 20260906083956 | 18 | 95 | 0.0 | 0.0 | 0.00 | 0.00 | 0.00 | 93 | 1019.4 |
| 20260906083714 | 18 | 95 | 0.0 | 0.0 | 0.00 | 0.00 | 0.00 | 93 | 1019.3 |
| 20260906082941 | 18 | 95 | 0.0 | 0.0 | 0.00 | 0.00 | 0.00 | 93 | 1019.2 |
| 20260906082435 | 18 | 95 | 0.0 | 0.0 | 0.00 | 0.00 | 0.00 | 93 | 1019.1 |
| 20260906082157 | 18 | 95 | 0.0 | 0.0 | 0.00 | 0.00 | 0.00 | 93 | 1019.3 |
| 20260906081424 | 18 | 95 | 0.0 | 0.0 | 0.00 | 0.00 | 0.00 | 93 | 1019.2 |
| 20260906080919 | 18 | 95 | 0.0 | 0.0 | 0.00 | 0.00 | 0.00 | 93 | 1019.3 |
| 20260906080633 | 18 | 95 | 0.0 | 0.0 | 0.00 | 0.00 | 0.00 | 93 | 1019.3 |
| 20260906075907 | 18 | 95 | 0.0 | 0.0 | 0.00 | 0.00 | 0.00 | 93 | 1019.3 |
| 20260906075847 | 18 | 95 | 0.0 | 0.0 | 0.00 | 0.00 | 0.00 | 93 | 1019.3 |
| 20260906074854 | 18 | 95 | 0.0 | 0.0 | 0.00 | 0.00 | 0.00 | 93 | 1019.3 |
| 20260906074430 | 18 | 95 | 0.0 | 0.0 | 0.00 | 0.00 | 0.00 | 93 | 1019.2 |
| 20260906073336 | 18 | 95 | 0.0 | 0.0 | 0.00 | 0.00 | 0.00 | 93 | 1019.3 |
| 20260906073314 | 18 | 95 | 0.0 | 0.0 | 0.00 | 0.00 | 0.00 | 93 | 1019.3 |
| 20260906072546 | 18 | 95 | 0.0 | 0.0 | 0.00 | 0.00 | 0.00 | 93 | 1019.3 |
| 20260906071819 | 18 | 95 | 0.0 | 0.0 | 0.00 | 0.00 | 0.00 | 93 | 1019.3 |
| 20260906071312 | 18 | 95 | 0.0 | 0.0 | 0.00 | 0.00 | 0.00 | 93 | 1019.3 |
| 20260906070806 | 18 | 95 | 0.0 | 0.0 | 0.00 | 0.00 | 0.00 | 93 | 1019.3 |
| 20260906070300 | 18 | 95 | 0.0 | 0.0 | 0.00 | 0.00 | 0.00 | 93 | 1019.3 |
| 20260906065753 | 18 | 95 | 0.0 | 0.0 | 0.00 | 0.00 | 0.00 | 93 | 1019.3 |
| 20260906065248 | 18 | 95 | 0.0 | 0.0 | 0.00 | 0.00 | 0.00 | 93 | 1019.3 |
| 20260906064743 | 18 | 95 | 0.0 | 0.0 | 0.00 | 0.00 | 0.00 | 93 | 1019.4 |
| 20260906064236 | 18 | 95 | 0.0 | 0.0 | 0.00 | 0.00 | 0.00 | 93 | 1019.4 |
| 20260906063730 | 18 | 95 | 0.0 | 0.0 | 0.00 | 0.00 | 0.00 | 93 | 1019.6 |
| 20260906063224 | 19 | 37 | 0.0 | 0.0 | 0.00 | 0.00 | 0.00 | 92 | 1019.4 |
| 20260906062717 | 19 | 336 | 0.0 | 0.0 | 0.00 | 0.00 | 0.00 | 93 | 1019.5 |
| 20260906062213 | 19 | 336 | 0.0 | 1.6 | 0.00 | 0.00 | 0.00 | 93 | 1019.5 |
| 20260906061706 | 19 | 336 | 0.0 | 1.6 | 0.00 | 0.00 | 0.00 | 92 | 1019.5 |
| 20260906061200 | 19 | 336 | 0.0 | 1.6 | 0.00 | 0.00 | 0.00 | 92 | 1019.5 |
| 20260906060654 | 19 | 336 | 1.6 | 4.8 | 0.00 | 0.00 | 0.00 | 92 | 1019.4 |
| 20260906060153 | 20 | 336 | 1.6 | 6.4 | 0.00 | 0.00 | 0.00 | 93 | 1019.6 |
| 20260906055654 | 20 | 302 | 3.2 | 6.4 | 0.00 | 0.00 | 0.00 | 93 | 1019.5 |
| 20260906055154 | 20 | 337 | 3.2 | 6.4 | 0.00 | 0.00 | 0.00 | 92 | 1019.5 |
| 20260906054654 | 20 | 317 | 3.2 | 6.4 | 0.00 | 0.00 | 0.00 | 93 | 1019.4 |
| 20260906054154 | 20 | 328 | 3.2 | 6.4 | 0.00 | 0.00 | 0.00 | 92 | 1019.5 |
| 20260906053653 | 20 | 326 | 1.6 | 6.4 | 0.00 | 0.00 | 0.00 | 93 | 1019.5 |
| 20260906053154 | 19 | 305 | 0.0 | 4.8 | 0.00 | 0.00 | 0.00 | 93 | 1019.3 |
| 20260906052654 | 19 | 239 | 0.0 | 1.6 | 0.00 | 0.00 | 0.00 | 92 | 1019.4 |
| 20260906052154 | 19 | 239 | 0.0 | 1.6 | 0.00 | 0.00 | 0.00 | 92 | 1019.4 |
| 20260906051653 | 19 | 239 | 0.0 | 1.6 | 0.00 | 0.00 | 0.00 | 92 | 1019.4 |
| 20260906051153 | 19 | 239 | 0.0 | 1.6 | 0.00 | 0.00 | 0.00 | 92 | 1019.4 |
| 20260906050654 | 19 | 239 | 0.0 | 0.0 | 0.00 | 0.00 | 0.00 | 92 | 1019.3 |
| 20260906050416 | 19 | 239 | 0.0 | 0.0 | 0.00 | 0.00 | 0.00 | 92 | 1019.3 |
| 20260906045650 | 19 | 239 | 0.0 | 0.0 | 0.00 | 0.00 | 0.00 | 92 | 1019.2 |
| 20260906045406 | 19 | 239 | 0.0 | 0.0 | 0.00 | 0.00 | 0.00 | 92 | 1019.1 |
| 20260906044637 | 20 | 239 | 0.0 | 1.6 | 0.00 | 0.00 | 0.00 | 91 | 1019.1 |
| 20260906044130 | 20 | 239 | 0.0 | 1.6 | 0.00 | 0.00 | 0.00 | 92 | 1019.1 |
| 20260906043631 | 20 | 239 | 0.0 | 1.6 | 0.00 | 0.00 | 0.00 | 91 | 1019.1 |
| 20260906043131 | 20 | 239 | 0.0 | 1.6 | 0.00 | 0.00 | 0.00 | 91 | 1019.0 |
| 20260906042631 | 20 | 229 | 0.0 | 3.2 | 0.00 | 0.00 | 0.00 | 91 | 1018.9 |
| 20260906042402 | 20 | 229 | 0.0 | 3.2 | 0.00 | 0.00 | 0.00 | 91 | 1018.8 |
| 20260906041629 | 20 | 229 | 0.0 | 1.6 | 0.00 | 0.00 | 0.00 | 91 | 1018.7 |
| 20260906041128 | 20 | 229 | 0.0 | 1.6 | 0.00 | 0.00 | 0.00 | 91 | 1018.7 |
| 20260906040627 | 20 | 229 | 0.0 | 1.6 | 0.00 | 0.00 | 0.00 | 91 | 1018.6 |
| 20260906040125 | 20 | 229 | 0.0 | 1.6 | 0.00 | 0.00 | 0.00 | 91 | 1018.6 |
| 20260906035623 | 20 | 229 | 0.0 | 1.6 | 0.00 | 0.00 | 0.00 | 91 | 1018.5 |
| 20260906035121 | 20 | 270 | 0.0 | 0.0 | 0.00 | 0.00 | 0.00 | 91 | 1018.6 |
| 20260906034621 | 20 | 270 | 0.0 | 1.6 | 0.00 | 0.00 | 0.00 | 91 | 1018.5 |
| 20260906034120 | 20 | 288 | 0.0 | 3.2 | 0.00 | 0.00 | 0.00 | 91 | 1018.4 |
| 20260906033618 | 20 | 288 | 0.0 | 3.2 | 0.00 | 0.00 | 0.00 | 91 | 1018.3 |
| 20260906033117 | 20 | 304 | 0.0 | 3.2 | 0.00 | 0.00 | 0.00 | 91 | 1018.3 |
| 20260906032617 | 20 | 304 | 0.0 | 3.2 | 0.00 | 0.00 | 0.00 | 91 | 1018.3 |
| 20260906032117 | 20 | 257 | 0.0 | 1.6 | 0.00 | 0.00 | 0.00 | 90 | 1018.1 |
| 20260906031614 | 20 | 303 | 0.0 | 1.6 | 0.00 | 0.00 | 0.00 | 90 | 1018.3 |
| 20260906031113 | 20 | 303 | 0.0 | 1.6 | 0.00 | 0.00 | 0.00 | 90 | 1018.2 |
| 20260906030613 | 21 | 303 | 0.0 | 3.2 | 0.00 | 0.00 | 0.00 | 90 | 1018.2 |
| 20260906030114 | 21 | 303 | 0.0 | 3.2 | 0.00 | 0.00 | 0.00 | 90 | 1018.2 |
| 20260906025612 | 21 | 5 | 0.0 | 3.2 | 0.00 | 0.00 | 0.00 | 90 | 1018.1 |
| 20260906025113 | 21 | 306 | 0.0 | 3.2 | 0.00 | 0.00 | 0.00 | 90 | 1018.2 |
| 20260906024614 | 21 | 306 | 0.0 | 4.8 | 0.00 | 0.00 | 0.00 | 90 | 1018.2 |
| 20260906024113 | 21 | 74 | 0.0 | 4.8 | 0.00 | 0.00 | 0.00 | 90 | 1018.2 |
| 20260906023837 | 21 | 24 | 0.0 | 4.8 | 0.00 | 0.00 | 0.00 | 90 | 1018.2 |
| 20260906023113 | 21 | 113 | 0.0 | 4.8 | 0.00 | 0.00 | 0.00 | 90 | 1018.1 |
| 20260906022612 | 21 | 109 | 0.0 | 3.2 | 0.00 | 0.00 | 0.00 | 89 | 1018.2 |
| 20260906022113 | 21 | 290 | 0.0 | 3.2 | 0.00 | 0.00 | 0.00 | 89 | 1018.3 |
| 20260906021612 | 21 | 355 | 0.0 | 1.6 | 0.00 | 0.00 | 0.00 | 89 | 1018.1 |
| 20260906021113 | 21 | 286 | 0.0 | 1.6 | 0.00 | 0.00 | 0.00 | 89 | 1018.1 |
| 20260906020610 | 21 | 340 | 0.0 | 1.6 | 0.00 | 0.00 | 0.00 | 89 | 1018.1 |
| 20260906020110 | 21 | 340 | 0.0 | 1.6 | 0.00 | 0.00 | 0.00 | 89 | 1018.2 |
| 20260906015826 | 21 | 340 | 0.0 | 1.6 | 0.00 | 0.00 | 0.00 | 88 | 1018.2 |
| 20260906015104 | 21 | 340 | 0.0 | 1.6 | 0.00 | 0.00 | 0.00 | 89 | 1018.0 |
| 20260906014604 | 21 | 340 | 0.0 | 1.6 | 0.00 | 0.00 | 0.00 | 89 | 1018.0 |
| 20260906014105 | 22 | 340 | 0.0 | 1.6 | 0.00 | 0.00 | 0.00 | 89 | 1017.9 |
| 20260906013603 | 22 | 340 | 0.0 | 1.6 | 0.00 | 0.00 | 0.00 | 89 | 1018.0 |
| 20260906013100 | 22 | 313 | 0.0 | 6.4 | 0.00 | 0.00 | 0.00 | 89 | 1018.1 |
| 20260906012558 | 22 | 313 | 0.0 | 6.4 | 0.00 | 0.00 | 0.00 | 89 | 1018.2 |
| 20260906012058 | 22 | 88 | 0.0 | 3.2 | 0.00 | 0.00 | 0.00 | 88 | 1018.1 |
| 20260906011820 | 22 | 234 | 0.0 | 4.8 | 0.00 | 0.00 | 0.00 | 88 | 1018.1 |
| 20260906011046 | 22 | 323 | 0.0 | 4.8 | 0.00 | 0.00 | 0.00 | 88 | 1018.1 |
| 20260906010540 | 22 | 264 | 0.0 | 3.2 | 0.00 | 0.00 | 0.00 | 88 | 1018.2 |
| 20260906010035 | 22 | 296 | 0.0 | 3.2 | 0.00 | 0.00 | 0.00 | 88 | 1018.1 |
| 20260906005529 | 22 | 178 | 0.0 | 4.8 | 0.00 | 0.00 | 0.00 | 88 | 1018.1 |
| 20260906005021 | 22 | 187 | 1.6 | 4.8 | 0.00 | 0.00 | 0.00 | 88 | 1018.2 |
| 20260906005000 | 22 | 162 | 1.6 | 4.8 | 0.00 | 0.00 | 0.00 | 87 | 1018.1 |
| 20260906004010 | 22 | 55 | 1.6 | 4.8 | 0.00 | 0.00 | 0.00 | 87 | 1018.0 |
| 20260906003505 | 22 | 119 | 0.0 | 3.2 | 0.00 | 0.00 | 0.00 | 87 | 1017.9 |
| 20260906002958 | 22 | 263 | 0.0 | 4.8 | 0.00 | 0.00 | 0.00 | 88 | 1017.8 |
| 20260906002453 | 22 | 34 | 1.6 | 4.8 | 0.00 | 0.00 | 0.00 | 87 | 1017.8 |
| 20260906001947 | 22 | 330 | 1.6 | 4.8 | 0.00 | 0.00 | 0.00 | 87 | 1017.8 |
| 20260906001440 | 22 | 136 | 1.6 | 4.8 | 0.00 | 0.00 | 0.00 | 86 | 1017.8 |
| 20260906000934 | 23 | 64 | 1.6 | 4.8 | 0.00 | 0.00 | 0.00 | 86 | 1017.8 |
| 20260906000428 | 23 | 32 | 1.6 | 9.7 | 0.00 | 0.00 | 0.00 | 86 | 1017.8 |
| 20260905235922 | 23 | 71 | 3.2 | 11.3 | 0.00 | 0.00 | 0.00 | 85 | 1017.9 |
| 20260905235416 | 23 | 40 | 1.6 | 11.3 | 0.00 | 0.00 | 0.00 | 85 | 1017.8 |
| 20260905235137 | 23 | 355 | 1.6 | 6.4 | 0.00 | 0.00 | 0.00 | 84 | 1017.7 |
| 20260905234403 | 23 | 238 | 1.6 | 12.9 | 0.00 | 0.00 | 0.00 | 83 | 1017.6 |
| 20260905233857 | 23 | 0 | 3.2 | 12.9 | 0.00 | 0.00 | 0.00 | 84 | 1017.5 |
| 20260905233352 | 24 | 311 | 3.2 | 11.3 | 0.00 | 0.00 | 0.00 | 83 | 1017.5 |
| 20260905232847 | 24 | 0 | 3.2 | 11.3 | 0.00 | 0.00 | 0.00 | 83 | 1017.4 |
| 20260905232603 | 25 | 162 | 3.2 | 11.3 | 0.00 | 0.00 | 0.00 | 82 | 1017.3 |
| 20260905231834 | 25 | 164 | 1.6 | 11.3 | 0.00 | 0.00 | 0.00 | 82 | 1017.4 |
| 20260905231327 | 25 | 28 | 1.6 | 6.4 | 0.00 | 0.00 | 0.00 | 82 | 1017.4 |
| 20260905230822 | 25 | 337 | 3.2 | 9.7 | 0.00 | 0.00 | 0.00 | 82 | 1017.5 |
| 20260905230401 | 25 | 36 | 3.2 | 9.7 | 0.00 | 0.00 | 0.00 | 81 | 1017.5 |
| 20260905225306 | 26 | 116 | 1.6 | 6.4 | 0.00 | 0.00 | 0.00 | 82 | 1017.2 |
| 20260905224758 | 26 | 190 | 1.6 | 8.0 | 0.00 | 0.00 | 0.00 | 82 | 1017.1 |
| 20260905224252 | 26 | 350 | 1.6 | 8.0 | 0.00 | 0.00 | 0.00 | 82 | 1017.1 |
| 20260905223746 | 26 | 55 | 1.6 | 6.4 | 0.00 | 0.00 | 0.00 | 82 | 1017.0 |
| 20260905223240 | 26 | 55 | 1.6 | 6.4 | 0.00 | 0.00 | 0.00 | 81 | 1017.1 |
| 20260905222734 | 26 | 94 | 1.6 | 12.9 | 0.00 | 0.00 | 0.00 | 81 | 1017.1 |
| 20260905222227 | 26 | 124 | 3.2 | 12.9 | 0.00 | 0.00 | 0.00 | 80 | 1017.1 |
| 20260905221721 | 26 | 103 | 1.6 | 4.8 | 0.00 | 0.00 | 0.00 | 81 | 1017.0 |
| 20260905221216 | 26 | 244 | 1.6 | 4.8 | 0.00 | 0.00 | 0.00 | 82 | 1016.9 |
| 20260905220709 | 26 | 93 | 1.6 | 4.8 | 0.00 | 0.00 | 0.00 | 81 | 1017.0 |
| 20260905220204 | 26 | 22 | 1.6 | 4.8 | 0.00 | 0.00 | 0.00 | 81 | 1017.0 |
| 20260905215658 | 27 | 11 | 1.6 | 8.0 | 0.00 | 0.00 | 0.00 | 80 | 1016.9 |
| 20260905215156 | 27 | 313 | 1.6 | 11.3 | 0.00 | 0.00 | 0.00 | 79 | 1016.9 |
| 20260905214656 | 27 | 266 | 3.2 | 11.3 | 0.00 | 0.00 | 0.00 | 79 | 1016.9 |
| 20260905214157 | 27 | 57 | 1.6 | 11.3 | 0.00 | 0.00 | 0.00 | 80 | 1016.8 |
| 20260905213920 | 27 | 150 | 1.6 | 4.8 | 0.00 | 0.00 | 0.00 | 80 | 1016.6 |
| 20260905213415 | 27 | 75 | 3.2 | 11.3 | 0.00 | 0.00 | 0.00 | 80 | 1016.6 |
| 20260905212657 | 27 | 115 | 3.2 | 11.3 | 0.00 | 0.00 | 0.00 | 81 | 1016.5 |
| 20260905212156 | 27 | 315 | 3.2 | 11.3 | 0.00 | 0.00 | 0.00 | 80 | 1016.5 |
| 20260905211656 | 27 | 163 | 3.2 | 11.3 | 0.00 | 0.00 | 0.00 | 81 | 1016.5 |
| 20260905211155 | 27 | 320 | 1.6 | 8.0 | 0.00 | 0.00 | 0.00 | 79 | 1016.5 |
| 20260905210656 | 27 | 300 | 1.6 | 8.0 | 0.00 | 0.00 | 0.00 | 80 | 1016.5 |
| 20260905210156 | 27 | 271 | 1.6 | 9.7 | 0.00 | 0.00 | 0.00 | 80 | 1016.5 |
| 20260905205655 | 27 | 291 | 3.2 | 9.7 | 0.00 | 0.00 | 0.00 | 80 | 1016.4 |
| 20260905205155 | 27 | 336 | 3.2 | 8.0 | 0.00 | 0.00 | 0.00 | 80 | 1016.5 |
| 20260905204655 | 27 | 11 | 1.6 | 8.0 | 0.00 | 0.00 | 0.00 | 81 | 1016.6 |
| 20260905204154 | 27 | 172 | 1.6 | 8.0 | 0.00 | 0.00 | 0.00 | 80 | 1016.6 |
| 20260905203654 | 27 | 295 | 1.6 | 8.0 | 0.00 | 0.00 | 0.00 | 80 | 1016.5 |
| 20260905203154 | 27 | 337 | 1.6 | 6.4 | 0.00 | 0.00 | 0.00 | 80 | 1016.6 |
| 20260905202919 | 27 | 319 | 3.2 | 6.4 | 0.00 | 0.00 | 0.00 | 79 | 1016.6 |
| 20260905202415 | 27 | 311 | 3.2 | 8.0 | 0.00 | 0.00 | 0.00 | 80 | 1016.5 |
| 20260905201654 | 27 | 323 | 3.2 | 8.0 | 0.00 | 0.00 | 0.00 | 80 | 1016.4 |
| 20260905201153 | 27 | 313 | 3.2 | 12.9 | 0.00 | 0.00 | 0.00 | 80 | 1016.5 |
| 20260905200654 | 26 | 178 | 3.2 | 12.9 | 0.00 | 0.00 | 0.00 | 80 | 1016.5 |
| 20260905200154 | 26 | 351 | 3.2 | 12.9 | 0.00 | 0.00 | 0.00 | 81 | 1016.5 |
| 20260905195652 | 26 | 331 | 4.8 | 12.9 | 0.00 | 0.00 | 0.00 | 82 | 1016.6 |
| 20260905195151 | 26 | 321 | 3.2 | 12.9 | 0.00 | 0.00 | 0.00 | 82 | 1016.7 |
| 20260905194652 | 26 | 287 | 3.2 | 6.4 | 0.00 | 0.00 | 0.00 | 83 | 1016.8 |
| 20260905194153 | 26 | 236 | 4.8 | 8.0 | 0.00 | 0.00 | 0.00 | 84 | 1016.8 |
| 20260905193651 | 26 | 313 | 3.2 | 8.0 | 0.00 | 0.00 | 0.00 | 84 | 1016.7 |
| 20260905193151 | 26 | 306 | 3.2 | 8.0 | 0.00 | 0.00 | 0.00 | 84 | 1016.8 |
| 20260905192915 | 25 | 300 | 1.6 | 6.4 | 0.00 | 0.00 | 0.00 | 85 | 1017.0 |
| 20260905192153 | 25 | 306 | 0.0 | 3.2 | 0.00 | 0.00 | 0.00 | 85 | 1017.0 |
| 20260905191914 | 25 | 139 | 1.6 | 3.2 | 0.00 | 0.00 | 0.00 | 85 | 1017.1 |
| 20260905191631 | 25 | 34 | 3.2 | 8.0 | 0.00 | 0.00 | 0.00 | 85 | 1017.0 |
| 20260905190911 | 25 | 355 | 3.2 | 8.0 | 0.00 | 0.00 | 0.00 | 85 | 1017.1 |
| 20260905190140 | 25 | 288 | 3.2 | 8.0 | 0.00 | 0.00 | 0.00 | 86 | 1017.1 |
| 20260905185728 | 25 | 36 | 3.2 | 8.0 | 0.00 | 0.00 | 0.00 | 86 | 1017.2 |
| 20260905184639 | 25 | 328 | 1.6 | 8.0 | 0.00 | 0.00 | 0.00 | 86 | 1017.2 |
| 20260905184140 | 25 | 265 | 1.6 | 8.0 | 0.00 | 0.00 | 0.00 | 87 | 1017.3 |
| 20260905183910 | 25 | 325 | 3.2 | 8.0 | 0.00 | 0.00 | 0.00 | 87 | 1017.3 |
| 20260905183135 | 25 | 309 | 1.6 | 6.4 | 0.00 | 0.00 | 0.00 | 87 | 1017.3 |
| 20260905182635 | 25 | 31 | 1.6 | 4.8 | 0.00 | 0.00 | 0.00 | 87 | 1017.5 |
| 20260905182134 | 25 | 355 | 3.2 | 8.0 | 0.00 | 0.00 | 0.00 | 87 | 1017.3 |
| 20260905181902 | 25 | 32 | 3.2 | 8.0 | 0.00 | 0.00 | 0.00 | 88 | 1017.2 |
| 20260905181136 | 24 | 319 | 3.2 | 8.0 | 0.00 | 0.00 | 0.00 | 88 | 1017.2 |
| 20260905180631 | 24 | 317 | 1.6 | 8.0 | 0.00 | 0.00 | 0.00 | 88 | 1017.3 |
| 20260905180133 | 24 | 314 | 1.6 | 8.0 | 0.00 | 0.00 | 0.00 | 88 | 1017.3 |
| 20260905175631 | 24 | 189 | 1.6 | 4.8 | 0.00 | 0.00 | 0.00 | 88 | 1017.3 |
| 20260905175348 | 24 | 327 | 1.6 | 6.4 | 0.00 | 0.00 | 0.00 | 88 | 1017.2 |
| 20260905174630 | 24 | 342 | 1.6 | 9.7 | 0.00 | 0.00 | 0.00 | 88 | 1017.3 |
| 20260905174129 | 24 | 22 | 1.6 | 9.7 | 0.00 | 0.00 | 0.00 | 89 | 1017.2 |
| 20260905173629 | 24 | 113 | 1.6 | 6.4 | 0.00 | 0.00 | 0.00 | 89 | 1017.2 |
| 20260905173125 | 24 | 44 | 1.6 | 8.0 | 0.00 | 0.00 | 0.00 | 89 | 1017.2 |
| 20260905172618 | 23 | 278 | 1.6 | 8.0 | 0.00 | 0.00 | 0.00 | 89 | 1017.2 |
| 20260905172112 | 24 | 141 | 1.6 | 6.4 | 0.00 | 0.00 | 0.00 | 89 | 1017.3 |
| 20260905171606 | 23 | 350 | 1.6 | 6.4 | 0.00 | 0.00 | 0.00 | 89 | 1017.3 |
| 20260905171100 | 23 | 313 | 0.0 | 4.8 | 0.00 | 0.00 | 0.00 | 89 | 1017.4 |
| 20260905170554 | 23 | 277 | 1.6 | 6.4 | 0.00 | 0.00 | 0.00 | 89 | 1017.4 |
| 20260905170047 | 23 | 35 | 1.6 | 6.4 | 0.00 | 0.00 | 0.00 | 90 | 1017.4 |
| 20260905165802 | 23 | 130 | 1.6 | 4.8 | 0.00 | 0.00 | 0.00 | 90 | 1017.5 |
| 20260905165036 | 23 | 355 | 1.6 | 4.8 | 0.00 | 0.00 | 0.00 | 90 | 1017.6 |
| 20260905164530 | 23 | 284 | 0.0 | 4.8 | 0.00 | 0.00 | 0.00 | 90 | 1017.7 |
| 20260905164024 | 23 | 281 | 0.0 | 6.4 | 0.00 | 0.00 | 0.00 | 90 | 1017.6 |
| 20260905163516 | 23 | 67 | 0.0 | 6.4 | 0.00 | 0.00 | 0.00 | 90 | 1017.6 |
| 20260905163011 | 23 | 328 | 0.0 | 1.6 | 0.00 | 0.00 | 0.00 | 90 | 1017.6 |
| 20260905162505 | 23 | 184 | 0.0 | 1.6 | 0.00 | 0.00 | 0.00 | 90 | 1017.5 |
| 20260905161959 | 23 | 153 | 0.0 | 1.6 | 0.00 | 0.03 | 0.00 | 90 | 1017.5 |
| 20260905161453 | 23 | 248 | 0.0 | 1.6 | 0.00 | 0.05 | 0.00 | 90 | 1017.5 |
| 20260905160947 | 23 | 229 | 0.0 | 1.6 | 0.00 | 0.10 | 0.00 | 90 | 1017.6 |
| 20260905160441 | 23 | 123 | 0.0 | 1.6 | 0.00 | 0.18 | 0.00 | 90 | 1017.5 |
| 20260905155934 | 23 | 127 | 0.0 | 1.6 | 0.00 | 0.18 | 0.00 | 90 | 1017.5 |
| 20260905155428 | 23 | 138 | 0.0 | 1.6 | 0.00 | 0.18 | 0.00 | 90 | 1017.4 |
| 20260905154924 | 23 | 254 | 0.0 | 0.0 | 0.00 | 0.18 | 0.00 | 91 | 1017.3 |
| 20260905154417 | 23 | 300 | 0.0 | 1.6 | 0.00 | 0.18 | 0.00 | 91 | 1017.3 |
| 20260905153912 | 23 | 294 | 0.0 | 1.6 | 0.00 | 0.18 | 0.00 | 91 | 1017.2 |
| 20260905153405 | 23 | 200 | 0.0 | 1.6 | 0.00 | 0.18 | 0.00 | 91 | 1017.1 |
| 20260905152900 | 23 | 343 | 0.0 | 1.6 | 0.00 | 0.18 | 0.00 | 91 | 1017.0 |
| 20260905152354 | 23 | 342 | 0.0 | 1.6 | 0.00 | 0.18 | 0.00 | 92 | 1017.1 |
| 20260905151847 | 23 | 248 | 0.0 | 1.6 | 0.00 | 0.18 | 0.00 | 93 | 1016.9 |
| 20260905151341 | 23 | 319 | 0.0 | 1.6 | 0.00 | 0.18 | 0.00 | 93 | 1016.9 |
| 20260905150835 | 23 | 123 | 0.0 | 1.6 | 0.00 | 0.18 | 0.00 | 93 | 1016.9 |
| 20260905150329 | 23 | 150 | 0.0 | 1.6 | 0.00 | 0.18 | 0.00 | 93 | 1016.8 |
| 20260905150050 | 23 | 350 | 0.0 | 1.6 | 0.00 | 0.18 | 0.00 | 94 | 1016.8 |
| 20260905145317 | 23 | 355 | 0.0 | 1.6 | 0.00 | 0.18 | 0.00 | 93 | 1016.7 |
| 20260905144811 | 23 | 67 | 0.0 | 1.6 | 0.00 | 0.18 | 0.00 | 94 | 1016.6 |
| 20260905144305 | 23 | 97 | 0.0 | 1.6 | 0.00 | 0.18 | 0.00 | 94 | 1016.6 |
| 20260905144020 | 23 | 304 | 0.0 | 1.6 | 0.00 | 0.18 | 0.00 | 94 | 1016.7 |
| 20260905143510 | 22 | 229 | 0.0 | 1.6 | 0.00 | 0.18 | 0.00 | 94 | 1016.7 |
| 20260905142746 | 22 | 88 | 0.0 | 1.6 | 0.00 | 0.18 | 0.00 | 94 | 1016.7 |
| 20260905142240 | 22 | 313 | 0.0 | 1.6 | 0.00 | 0.18 | 0.00 | 94 | 1016.5 |
| 20260905141734 | 22 | 275 | 0.0 | 1.6 | 0.00 | 0.18 | 0.00 | 94 | 1016.6 |
| 20260905141228 | 22 | 276 | 0.0 | 1.6 | 0.00 | 0.18 | 0.00 | 94 | 1016.7 |
| 20260905140723 | 22 | 38 | 0.0 | 1.6 | 0.00 | 0.18 | 0.00 | 94 | 1016.7 |
| 20260905140216 | 22 | 0 | 0.0 | 1.6 | 0.00 | 0.18 | 0.00 | 94 | 1016.7 |
| 20260905140153 | 22 | 5 | 0.0 | 1.6 | 0.00 | 0.18 | 0.00 | 94 | 1016.6 |
| 20260905135205 | 22 | 347 | 0.0 | 1.6 | 0.00 | 0.18 | 0.00 | 94 | 1016.6 |
| 20260905134926 | 22 | 24 | 0.0 | 1.6 | 0.00 | 0.18 | 0.00 | 94 | 1016.5 |
| 20260905134155 | 22 | 93 | 0.0 | 1.6 | 0.00 | 0.18 | 0.00 | 94 | 1016.5 |
| 20260905133655 | 22 | 270 | 0.0 | 1.6 | 0.00 | 0.18 | 0.00 | 94 | 1016.5 |
| 20260905133155 | 22 | 72 | 0.0 | 1.6 | 0.00 | 0.18 | 0.00 | 94 | 1016.5 |
| 20260905132655 | 22 | 355 | 0.0 | 1.6 | 0.00 | 0.18 | 0.00 | 94 | 1016.5 |
| 20260905132155 | 22 | 150 | 0.0 | 1.6 | 0.00 | 0.18 | 0.00 | 94 | 1016.5 |
| 20260905131654 | 22 | 98 | 0.0 | 1.6 | 0.00 | 0.18 | 0.00 | 94 | 1016.5 |
| 20260905131155 | 22 | 117 | 0.0 | 0.0 | 0.00 | 0.18 | 0.00 | 94 | 1016.6 |
| 20260905130916 | 22 | 30 | 0.0 | 0.0 | 0.00 | 0.18 | 0.00 | 94 | 1016.8 |
| 20260905130154 | 22 | 111 | 0.0 | 0.0 | 0.00 | 0.18 | 0.00 | 94 | 1016.8 |
| 20260905125655 | 22 | 250 | 0.0 | 1.6 | 0.00 | 0.18 | 0.00 | 94 | 1016.4 |
| 20260905125154 | 22 | 288 | 0.0 | 1.6 | 0.00 | 0.18 | 0.00 | 94 | 1016.4 |
| 20260905124655 | 22 | 126 | 0.0 | 0.0 | 0.00 | 0.18 | 0.00 | 94 | 1016.3 |
| 20260905124155 | 22 | 132 | 0.0 | 1.6 | 0.00 | 0.18 | 0.00 | 94 | 1016.3 |
| 20260905123654 | 21 | 132 | 0.0 | 1.6 | 0.00 | 0.18 | 0.00 | 94 | 1016.2 |
| 20260905123154 | 22 | 69 | 0.0 | 0.0 | 0.00 | 0.18 | 0.00 | 94 | 1016.2 |
| 20260905122655 | 21 | 211 | 0.0 | 0.0 | 0.00 | 0.18 | 0.00 | 94 | 1016.0 |
| 20260905122418 | 21 | 211 | 0.0 | 0.0 | 0.00 | 0.18 | 0.00 | 94 | 1015.8 |
| 20260905121656 | 21 | 211 | 0.0 | 0.0 | 0.00 | 0.18 | 0.00 | 93 | 1015.7 |
| 20260905121157 | 21 | 211 | 0.0 | 0.0 | 0.00 | 0.18 | 0.00 | 93 | 1015.7 |
| 20260905120650 | 21 | 211 | 0.0 | 0.0 | 0.00 | 0.18 | 0.00 | 94 | 1015.6 |
| 20260905120406 | 21 | 255 | 0.0 | 0.0 | 0.00 | 0.18 | 0.00 | 93 | 1015.5 |
| 20260905115638 | 21 | 44 | 0.0 | 0.0 | 0.00 | 0.18 | 0.00 | 93 | 1015.4 |
| 20260905115132 | 21 | 41 | 0.0 | 1.6 | 0.00 | 0.18 | 0.00 | 93 | 1015.4 |
| 20260905114624 | 21 | 41 | 0.0 | 1.6 | 0.00 | 0.18 | 0.00 | 93 | 1015.5 |
| 20260905114118 | 21 | 232 | 0.0 | 0.0 | 0.00 | 0.18 | 0.00 | 93 | 1015.2 |